EVE857 LEMD-MROC

Flight info

Callsign EVE857
Flight time N/A
Altitude 34000
Route BARD3X BARDI DCT IXUVA DCT BANAL/M082F340 DCT 4230N02000W 42N030W/M082F360 40N040W 36N050W DCT AMENO/M082F380 M594 MLLER/N0473F380 M594 ALBBE UM594 GABUN/N0474F390 UM594 COLBY/N0471F400 DCT SPP UP798 COLOR BARRA4C
Aircraft A339/H-SADE1E2E3GHIJ3J5M1P2RWXY/LB2D1

Departure

Time 2026-05-05 06:01
Airport Adolfo Suárez Madrid–Barajas Airport (LEMD)

Arrival

Time N/A
Airport Juan Santamaría International Airport (MROC)
Time Latitude Longitude Altitude Speed Heading
2026-05-05 05:50 40.46083 -3.56651 1978 ft 0 kts 269°
2026-05-05 05:55 40.46083 -3.56655 1978 ft 1 kts 269°
2026-05-05 05:55 40.46088 -3.56699 1979 ft 8 kts 286°
2026-05-05 05:55 40.46154 -3.56753 1981 ft 14 kts 352°
2026-05-05 05:56 40.46220 -3.56692 1980 ft 13 kts 96°
2026-05-05 05:56 40.46214 -3.56625 1978 ft 6 kts 89°
2026-05-05 05:56 40.46215 -3.56553 1976 ft 6 kts 102°
2026-05-05 05:56 40.46170 -3.56518 1976 ft 10 kts 173°
2026-05-05 05:57 40.46119 -3.56478 1975 ft 9 kts 101°
2026-05-05 05:57 40.46112 -3.56353 1971 ft 20 kts 91°
2026-05-05 05:57 40.46112 -3.56129 1965 ft 27 kts 90°
2026-05-05 05:57 40.46114 -3.55875 1957 ft 27 kts 89°
2026-05-05 05:58 40.46112 -3.55638 1950 ft 16 kts 95°
2026-05-05 05:58 40.46044 -3.55515 1946 ft 18 kts 141°
2026-05-05 05:58 40.45912 -3.55381 1940 ft 29 kts 142°
2026-05-05 05:58 40.45750 -3.55215 1933 ft 30 kts 141°
2026-05-05 05:59 40.45585 -3.55045 1927 ft 30 kts 141°
2026-05-05 05:59 40.45459 -3.54912 1923 ft 14 kts 139°
2026-05-05 05:59 40.45456 -3.54800 1921 ft 14 kts 56°
2026-05-05 05:59 40.45524 -3.54701 1920 ft 14 kts 28°
2026-05-05 06:00 40.45630 -3.54704 1921 ft 20 kts 329°
2026-05-05 06:00 40.45857 -3.54927 1927 ft 68 kts 322°
2026-05-05 06:00 40.46381 -3.55461 1947 ft 121 kts 322°
2026-05-05 06:00 40.47169 -3.56261 1967 ft 166 kts 322°
2026-05-05 06:01 40.48151 -3.57267 2284 ft 180 kts 320°
2026-05-05 06:01 40.49066 -3.58248 2966 ft 172 kts 322°
2026-05-05 06:01 40.50019 -3.59245 3401 ft 180 kts 316°
2026-05-05 06:01 40.50682 -3.60626 3776 ft 185 kts 279°
2026-05-05 06:02 40.50766 -3.62381 4015 ft 197 kts 269°
2026-05-05 06:02 40.50735 -3.64248 4257 ft 209 kts 269°
2026-05-05 06:02 40.50726 -3.66207 4495 ft 222 kts 271°
2026-05-05 06:02 40.50756 -3.68302 4784 ft 233 kts 272°
2026-05-05 06:03 40.50812 -3.70494 5054 ft 247 kts 273°
2026-05-05 06:03 40.50888 -3.72790 5327 ft 262 kts 273°
2026-05-05 06:03 40.50980 -3.75239 5706 ft 270 kts 273°
2026-05-05 06:03 40.51072 -3.77708 6299 ft 271 kts 273°
2026-05-05 06:04 40.51167 -3.80167 6885 ft 272 kts 272°
2026-05-05 06:04 40.51262 -3.82645 7425 ft 274 kts 272°
2026-05-05 06:04 40.51358 -3.85167 7971 ft 276 kts 272°
2026-05-05 06:04 40.51449 -3.87674 8477 ft 279 kts 272°
2026-05-05 06:05 40.51542 -3.90230 8956 ft 282 kts 273°
2026-05-05 06:05 40.51640 -3.92793 9388 ft 285 kts 273°
2026-05-05 06:05 40.51742 -3.95436 9805 ft 289 kts 273°
2026-05-05 06:05 40.51844 -3.98061 10269 ft 292 kts 273°
2026-05-05 06:06 40.51949 -4.00775 10520 ft 305 kts 273°
2026-05-05 06:06 40.52057 -4.03621 10749 ft 317 kts 272°
2026-05-05 06:06 40.52164 -4.06545 10985 ft 329 kts 273°
2026-05-05 06:06 40.52280 -4.09613 11240 ft 340 kts 273°
2026-05-05 06:07 40.52397 -4.12782 11508 ft 351 kts 273°
2026-05-05 06:07 40.52513 -4.16022 11796 ft 362 kts 273°
2026-05-05 06:07 40.52639 -4.19339 12244 ft 365 kts 273°
2026-05-05 06:07 40.52763 -4.22622 12855 ft 363 kts 272°
2026-05-05 06:08 40.52880 -4.25919 13466 ft 360 kts 272°
2026-05-05 06:08 40.52993 -4.29232 13964 ft 361 kts 272°
2026-05-05 06:08 40.53108 -4.32547 14479 ft 363 kts 272°
2026-05-05 06:08 40.53222 -4.35829 14984 ft 364 kts 272°
2026-05-05 06:09 40.53336 -4.39156 15471 ft 366 kts 272°
2026-05-05 06:09 40.53452 -4.42533 15993 ft 369 kts 272°
2026-05-05 06:09 40.53566 -4.45882 16560 ft 370 kts 272°
2026-05-05 06:09 40.53681 -4.49271 17111 ft 371 kts 272°
2026-05-05 06:10 40.53797 -4.52685 17628 ft 374 kts 271°
2026-05-05 06:10 40.53909 -4.56098 18124 ft 376 kts 271°
2026-05-05 06:10 40.54021 -4.59516 18625 ft 378 kts 271°
2026-05-05 06:10 40.54134 -4.62966 19110 ft 378 kts 271°
2026-05-05 06:11 40.54245 -4.66387 19518 ft 381 kts 271°
2026-05-05 06:11 40.54356 -4.69876 19994 ft 381 kts 271°
2026-05-05 06:11 40.54467 -4.73358 20431 ft 383 kts 271°
2026-05-05 06:11 40.54577 -4.76819 20853 ft 384 kts 271°
2026-05-05 06:12 40.54688 -4.80330 21323 ft 386 kts 271°
2026-05-05 06:12 40.54794 -4.83837 21764 ft 387 kts 271°
2026-05-05 06:12 40.54903 -4.87377 22206 ft 388 kts 271°
2026-05-05 06:12 40.55010 -4.90923 22684 ft 389 kts 271°
2026-05-05 06:13 40.55116 -4.94487 23126 ft 390 kts 271°
2026-05-05 06:13 40.55223 -4.98041 23505 ft 391 kts 271°
2026-05-05 06:13 40.55328 -5.01600 23840 ft 394 kts 270°
2026-05-05 06:13 40.55434 -5.05184 24206 ft 395 kts 270°
2026-05-05 06:14 40.55537 -5.08825 24555 ft 397 kts 270°
2026-05-05 06:14 40.55639 -5.12408 24893 ft 398 kts 271°
2026-05-05 06:14 40.55739 -5.16048 25205 ft 400 kts 271°
2026-05-05 06:14 40.55843 -5.19696 25597 ft 399 kts 270°
2026-05-05 06:15 40.55944 -5.23369 25917 ft 401 kts 270°
2026-05-05 06:15 40.56041 -5.26988 26196 ft 403 kts 271°
2026-05-05 06:15 40.56139 -5.30669 26439 ft 405 kts 271°
2026-05-05 06:15 40.56237 -5.34385 26752 ft 405 kts 271°
2026-05-05 06:16 40.56333 -5.38081 26994 ft 405 kts 271°
2026-05-05 06:16 40.56430 -5.41770 27127 ft 409 kts 271°
2026-05-05 06:16 40.56526 -5.45554 27455 ft 408 kts 271°
2026-05-05 06:16 40.56619 -5.49209 27855 ft 406 kts 271°
2026-05-05 06:17 40.56711 -5.52911 28216 ft 404 kts 271°
2026-05-05 06:17 40.56802 -5.56598 28541 ft 404 kts 271°
2026-05-05 06:17 40.56893 -5.60290 28831 ft 403 kts 271°
2026-05-05 06:17 40.56980 -5.63940 29181 ft 401 kts 271°
2026-05-05 06:18 40.57066 -5.67605 29548 ft 399 kts 270°
2026-05-05 06:18 40.57152 -5.71232 29922 ft 397 kts 270°
2026-05-05 06:18 40.57235 -5.74873 30205 ft 397 kts 270°
2026-05-05 06:18 40.57318 -5.78467 30461 ft 397 kts 270°
2026-05-05 06:19 40.57398 -5.82099 30747 ft 397 kts 270°
2026-05-05 06:19 40.57480 -5.85722 30995 ft 397 kts 270°
2026-05-05 06:19 40.57556 -5.89351 31199 ft 398 kts 270°
2026-05-05 06:19 40.57633 -5.92938 31442 ft 397 kts 270°
2026-05-05 06:20 40.57709 -5.96578 31640 ft 397 kts 270°
2026-05-05 06:20 40.57785 -6.00219 31807 ft 399 kts 270°
2026-05-05 06:20 40.57860 -6.03864 31991 ft 400 kts 270°
2026-05-05 06:20 40.57932 -6.07478 32231 ft 400 kts 270°
2026-05-05 06:21 40.58004 -6.11130 32492 ft 399 kts 270°
2026-05-05 06:21 40.58074 -6.14753 32713 ft 399 kts 271°
2026-05-05 06:21 40.58142 -6.18414 32890 ft 400 kts 270°
2026-05-05 06:21 40.58212 -6.22059 33050 ft 401 kts 270°
2026-05-05 06:22 40.58277 -6.25729 33235 ft 402 kts 271°
2026-05-05 06:22 40.58345 -6.29368 33437 ft 402 kts 270°
2026-05-05 06:22 40.58457 -6.33050 33646 ft 401 kts 273°
2026-05-05 06:22 40.58701 -6.36729 33829 ft 402 kts 275°
2026-05-05 06:23 40.59069 -6.40343 34006 ft 403 kts 277°
2026-05-05 06:23 40.59568 -6.43987 34142 ft 404 kts 280°
2026-05-05 06:23 40.60192 -6.47567 34245 ft 406 kts 282°
2026-05-05 06:23 40.60947 -6.51128 34375 ft 408 kts 285°
2026-05-05 06:24 40.61843 -6.54696 34508 ft 409 kts 287°
2026-05-05 06:24 40.62860 -6.58200 34603 ft 411 kts 289°
2026-05-05 06:24 40.64733 -6.65293 34769 ft 413 kts 284°
2026-05-05 06:25 40.65493 -6.68974 34870 ft 413 kts 282°
2026-05-05 06:25 40.66180 -6.72665 34991 ft 415 kts 282°
2026-05-05 06:25 40.67529 -6.80058 35161 ft 417 kts 282°
2026-05-05 06:26 40.68874 -6.87473 35358 ft 420 kts 282°
2026-05-05 06:26 40.69547 -6.91195 35479 ft 420 kts 282°
2026-05-05 06:26 40.70223 -6.94948 35614 ft 420 kts 282°
2026-05-05 06:27 40.70898 -6.98703 35721 ft 422 kts 282°
2026-05-05 06:27 40.72249 -7.06242 35849 ft 425 kts 282°
2026-05-05 06:28 40.73601 -7.13808 36020 ft 427 kts 282°
2026-05-05 06:28 40.74956 -7.21427 36034 ft 427 kts 282°
2026-05-05 06:29 40.76309 -7.29055 36044 ft 428 kts 282°
2026-05-05 06:29 40.77655 -7.36690 36050 ft 428 kts 282°
2026-05-05 06:30 40.78998 -7.44343 36038 ft 428 kts 283°
2026-05-05 06:30 40.80339 -7.52000 36030 ft 429 kts 283°
2026-05-05 06:31 40.81676 -7.59683 36036 ft 429 kts 283°
2026-05-05 06:31 40.83004 -7.67354 36041 ft 430 kts 282°
2026-05-05 06:32 40.84324 -7.75004 36058 ft 429 kts 282°
2026-05-05 06:32 40.85643 -7.82676 36052 ft 429 kts 282°
2026-05-05 06:33 40.86952 -7.90316 36043 ft 430 kts 282°
2026-05-05 06:33 40.88266 -7.98024 36044 ft 430 kts 282°
2026-05-05 06:34 40.89572 -8.05719 36055 ft 431 kts 282°
2026-05-05 06:34 40.90886 -8.13488 36061 ft 431 kts 283°
2026-05-05 06:35 40.92181 -8.21181 36070 ft 431 kts 282°
2026-05-05 06:35 40.93475 -8.28900 36071 ft 430 kts 282°
2026-05-05 06:36 40.94758 -8.36604 36069 ft 431 kts 283°
2026-05-05 06:36 40.96043 -8.44344 36083 ft 430 kts 283°
2026-05-05 06:37 40.97316 -8.52026 36086 ft 429 kts 283°
2026-05-05 06:37 40.98585 -8.59731 36075 ft 429 kts 283°
2026-05-05 06:38 40.99845 -8.67427 36097 ft 430 kts 282°
2026-05-05 06:38 41.01107 -8.75168 36080 ft 429 kts 283°
2026-05-05 06:39 41.02357 -8.82855 36095 ft 430 kts 283°
2026-05-05 06:39 41.03605 -8.90561 36094 ft 429 kts 283°
2026-05-05 06:40 41.04851 -8.98292 36090 ft 429 kts 283°
2026-05-05 06:40 41.06081 -9.05974 36088 ft 429 kts 283°
2026-05-05 06:41 41.07310 -9.13682 36089 ft 429 kts 283°
2026-05-05 06:41 41.08537 -9.21398 36092 ft 429 kts 283°
2026-05-05 06:42 41.09758 -9.29112 36094 ft 429 kts 283°
2026-05-05 06:42 41.10972 -9.36832 36095 ft 429 kts 283°
2026-05-05 06:43 41.12181 -9.44557 36091 ft 428 kts 283°
2026-05-05 06:43 41.13384 -9.52272 36093 ft 427 kts 283°
2026-05-05 06:44 41.14572 -9.59923 36088 ft 428 kts 283°
2026-05-05 06:44 41.15757 -9.67611 36094 ft 428 kts 283°
2026-05-05 06:45 41.16946 -9.75348 36096 ft 426 kts 283°
2026-05-05 06:45 41.18122 -9.83035 36094 ft 427 kts 283°
2026-05-05 06:46 41.19450 -9.90669 36098 ft 425 kts 285°
2026-05-05 06:46 41.20833 -9.98249 36092 ft 426 kts 285°
2026-05-05 06:47 41.22221 -10.05886 36099 ft 426 kts 285°
2026-05-05 06:47 41.23594 -10.13480 36082 ft 426 kts 285°
2026-05-05 06:48 41.24979 -10.21168 36100 ft 427 kts 285°
2026-05-05 06:48 41.26346 -10.28785 36101 ft 427 kts 285°
2026-05-05 06:49 41.27712 -10.36446 36083 ft 426 kts 285°
2026-05-05 06:49 41.29057 -10.44025 36101 ft 426 kts 285°
2026-05-05 06:50 41.30415 -10.51692 36104 ft 427 kts 285°
2026-05-05 06:50 41.31764 -10.59342 36109 ft 428 kts 285°
2026-05-05 06:51 41.33113 -10.67035 36104 ft 427 kts 285°
2026-05-05 06:51 41.34451 -10.74701 36103 ft 427 kts 285°
2026-05-05 06:52 41.35791 -10.82395 36104 ft 427 kts 285°
2026-05-05 06:52 41.37120 -10.90076 36111 ft 427 kts 285°
2026-05-05 06:53 41.38442 -10.97728 36113 ft 426 kts 285°
2026-05-05 06:53 41.39755 -11.05384 36116 ft 427 kts 285°
2026-05-05 06:54 41.41070 -11.13077 36117 ft 428 kts 285°
2026-05-05 06:54 41.42393 -11.20830 36105 ft 428 kts 285°
2026-05-05 06:55 41.43698 -11.28539 36122 ft 429 kts 285°
2026-05-05 06:55 41.45006 -11.36283 36124 ft 429 kts 285°
2026-05-05 06:56 41.46307 -11.44022 36110 ft 430 kts 285°
2026-05-05 06:56 41.47607 -11.51782 36141 ft 430 kts 285°
2026-05-05 06:57 41.48895 -11.59492 36132 ft 431 kts 285°
2026-05-05 06:57 41.50191 -11.67296 36151 ft 432 kts 284°
2026-05-05 06:58 41.51478 -11.75082 36148 ft 432 kts 284°
2026-05-05 06:58 41.52745 -11.82891 36149 ft 433 kts 285°
2026-05-05 06:59 41.54039 -11.90727 36138 ft 433 kts 285°
2026-05-05 06:59 41.55303 -11.98525 36156 ft 434 kts 285°
2026-05-05 07:00 41.56591 -12.06385 36141 ft 435 kts 285°
2026-05-05 07:00 41.57866 -12.14294 36147 ft 435 kts 285°
2026-05-05 07:01 41.59121 -12.22153 36137 ft 435 kts 285°
2026-05-05 07:01 41.60387 -12.30025 36136 ft 436 kts 285°
2026-05-05 07:02 41.61644 -12.37938 36146 ft 435 kts 285°
2026-05-05 07:02 41.62895 -12.45829 36141 ft 437 kts 285°
2026-05-05 07:03 41.64137 -12.53711 36141 ft 437 kts 285°
2026-05-05 07:03 41.65384 -12.61658 36140 ft 437 kts 285°
2026-05-05 07:04 41.66634 -12.69613 36137 ft 439 kts 285°
2026-05-05 07:04 41.67877 -12.77564 36145 ft 439 kts 284°
2026-05-05 07:05 41.69117 -12.85561 36151 ft 440 kts 284°
2026-05-05 07:05 41.70349 -12.93555 36149 ft 442 kts 284°
2026-05-05 07:06 41.71578 -13.01574 36152 ft 442 kts 284°
2026-05-05 07:06 41.72805 -13.09630 36150 ft 443 kts 284°
2026-05-05 07:07 41.74029 -13.17693 36153 ft 443 kts 284°
2026-05-05 07:07 41.75242 -13.25736 36154 ft 443 kts 284°
2026-05-05 07:08 41.76447 -13.33760 36159 ft 443 kts 284°
2026-05-05 07:08 41.77660 -13.41885 36159 ft 444 kts 284°
2026-05-05 07:09 41.78853 -13.49907 36170 ft 443 kts 284°
2026-05-05 07:09 41.80054 -13.58045 36166 ft 444 kts 284°
2026-05-05 07:10 41.81245 -13.66136 36175 ft 446 kts 283°
2026-05-05 07:10 41.82428 -13.74226 36176 ft 446 kts 283°
2026-05-05 07:11 41.83614 -13.82373 36179 ft 446 kts 283°
2026-05-05 07:11 41.84788 -13.90493 36184 ft 445 kts 283°
2026-05-05 07:12 41.85965 -13.98662 36185 ft 447 kts 283°
2026-05-05 07:12 41.87126 -14.06772 36187 ft 447 kts 283°
2026-05-05 07:13 41.88297 -14.14985 36189 ft 447 kts 283°
2026-05-05 07:13 41.89451 -14.23124 36192 ft 447 kts 282°
2026-05-05 07:14 41.90604 -14.31316 36193 ft 447 kts 283°
2026-05-05 07:14 41.91750 -14.39494 36194 ft 448 kts 282°
2026-05-05 07:15 41.92893 -14.47681 36197 ft 448 kts 282°
2026-05-05 07:15 41.94030 -14.55881 36199 ft 448 kts 282°
2026-05-05 07:16 41.95158 -14.64068 36199 ft 448 kts 282°
2026-05-05 07:16 41.96275 -14.72226 36205 ft 449 kts 282°
2026-05-05 07:17 41.97404 -14.80518 36204 ft 449 kts 281°
2026-05-05 07:17 41.98512 -14.88719 36205 ft 450 kts 281°
2026-05-05 07:18 41.99622 -14.96972 36202 ft 450 kts 281°
2026-05-05 07:18 42.00697 -15.05245 36193 ft 451 kts 281°
2026-05-05 07:19 42.01709 -15.13545 36191 ft 451 kts 280°
2026-05-05 07:19 42.02708 -15.21840 36194 ft 451 kts 280°
2026-05-05 07:20 42.03701 -15.30112 36197 ft 451 kts 280°
2026-05-05 07:20 42.04693 -15.38411 36196 ft 451 kts 281°
2026-05-05 07:21 42.05687 -15.46783 36201 ft 452 kts 281°
2026-05-05 07:21 42.06669 -15.55094 36203 ft 452 kts 280°
2026-05-05 07:22 42.07638 -15.63359 36207 ft 452 kts 280°
2026-05-05 07:22 42.08611 -15.71712 36213 ft 451 kts 279°
2026-05-05 07:23 42.09573 -15.80042 36215 ft 451 kts 279°
2026-05-05 07:23 42.10518 -15.88267 36217 ft 447 kts 279°
2026-05-05 07:24 42.11459 -15.96501 36223 ft 446 kts 280°
2026-05-05 07:24 42.12392 -16.04728 36227 ft 446 kts 280°
2026-05-05 07:25 42.13320 -16.12958 36228 ft 447 kts 279°
2026-05-05 07:25 42.14247 -16.21232 36231 ft 446 kts 279°
2026-05-05 07:26 42.15159 -16.29442 36232 ft 446 kts 280°
2026-05-05 07:26 42.16071 -16.37703 36236 ft 446 kts 280°
2026-05-05 07:27 42.16978 -16.45967 36241 ft 446 kts 280°
2026-05-05 07:27 42.17877 -16.54214 36244 ft 446 kts 280°
2026-05-05 07:28 42.18769 -16.62448 36241 ft 446 kts 280°
2026-05-05 07:28 42.19657 -16.70710 36245 ft 447 kts 279°
2026-05-05 07:29 42.20538 -16.78972 36242 ft 446 kts 279°
2026-05-05 07:29 42.21413 -16.87217 36240 ft 446 kts 279°
2026-05-05 07:30 42.22285 -16.95499 36247 ft 446 kts 279°
2026-05-05 07:30 42.23571 -17.07868 36251 ft 447 kts 279°
2026-05-05 07:31 42.24430 -17.16173 36251 ft 447 kts 279°
2026-05-05 07:31 42.25273 -17.24396 36252 ft 447 kts 279°
2026-05-05 07:32 42.26120 -17.32715 36255 ft 447 kts 279°
2026-05-05 07:32 42.26960 -17.41011 36259 ft 447 kts 279°
2026-05-05 07:33 42.27788 -17.49259 36257 ft 447 kts 279°
2026-05-05 07:33 42.28616 -17.57567 36258 ft 447 kts 279°
2026-05-05 07:34 42.29437 -17.65869 36261 ft 447 kts 279°
2026-05-05 07:34 42.30249 -17.74165 36260 ft 447 kts 279°
2026-05-05 07:35 42.31052 -17.82425 36268 ft 447 kts 279°
2026-05-05 07:35 42.31858 -17.90758 36278 ft 447 kts 279°
2026-05-05 07:36 42.32654 -17.99071 36283 ft 448 kts 279°
2026-05-05 07:36 42.33444 -18.07366 36286 ft 448 kts 279°
2026-05-05 07:37 42.34236 -18.15718 36284 ft 448 kts 279°
2026-05-05 07:37 42.35016 -18.24029 36289 ft 448 kts 279°
2026-05-05 07:38 42.35788 -18.32336 36289 ft 448 kts 279°
2026-05-05 07:38 42.36557 -18.40686 36284 ft 448 kts 279°
2026-05-05 07:39 42.37320 -18.49026 36287 ft 448 kts 279°
2026-05-05 07:39 42.38075 -18.57359 36289 ft 449 kts 279°
2026-05-05 07:40 42.38823 -18.65675 36291 ft 449 kts 279°
2026-05-05 07:40 42.39568 -18.74027 36291 ft 449 kts 279°
2026-05-05 07:41 42.40308 -18.82387 36291 ft 449 kts 279°
2026-05-05 07:41 42.41039 -18.90731 36287 ft 449 kts 279°
2026-05-05 07:42 42.41770 -18.99143 36290 ft 450 kts 279°
2026-05-05 07:42 42.42489 -19.07490 36297 ft 450 kts 279°
2026-05-05 07:43 42.43205 -19.15877 36309 ft 450 kts 279°
2026-05-05 07:43 42.43915 -19.24267 36308 ft 450 kts 279°
2026-05-05 07:44 42.44616 -19.32621 36308 ft 450 kts 279°
2026-05-05 07:44 42.45314 -19.41025 36309 ft 449 kts 279°
2026-05-05 07:45 42.46001 -19.49379 36313 ft 449 kts 279°
2026-05-05 07:45 42.46685 -19.57772 36310 ft 449 kts 279°
2026-05-05 07:46 42.47365 -19.66184 36309 ft 449 kts 279°
2026-05-05 07:46 42.48032 -19.74543 36310 ft 450 kts 279°
2026-05-05 07:47 42.48695 -19.82935 36307 ft 451 kts 279°
2026-05-05 07:47 42.49356 -19.91382 36309 ft 451 kts 279°
2026-05-05 07:48 42.49927 -19.99814 36319 ft 452 kts 276°
2026-05-05 07:48 42.49992 -20.08278 36311 ft 453 kts 273°
2026-05-05 07:49 42.49930 -20.16760 36318 ft 453 kts 273°
2026-05-05 07:49 42.49859 -20.25274 36323 ft 453 kts 273°
2026-05-05 07:50 42.49783 -20.33790 36323 ft 453 kts 273°
2026-05-05 07:50 42.49701 -20.42269 36324 ft 453 kts 273°
2026-05-05 07:51 42.49612 -20.50790 36325 ft 453 kts 273°
2026-05-05 07:51 42.49518 -20.59294 36328 ft 453 kts 273°
2026-05-05 07:52 42.49418 -20.67753 36332 ft 453 kts 273°
2026-05-05 07:52 42.49312 -20.76256 36330 ft 453 kts 273°
2026-05-05 07:53 42.49199 -20.84767 36327 ft 452 kts 273°
2026-05-05 07:53 42.49081 -20.93237 36329 ft 452 kts 273°
2026-05-05 07:54 42.48955 -21.01759 36332 ft 452 kts 273°
2026-05-05 07:54 42.48824 -21.10217 36333 ft 453 kts 273°
2026-05-05 07:55 42.48686 -21.18731 36334 ft 453 kts 273°
2026-05-05 07:55 42.48542 -21.27246 36336 ft 453 kts 273°
2026-05-05 07:56 42.48391 -21.35673 36336 ft 452 kts 274°
2026-05-05 07:56 42.48235 -21.44154 36340 ft 451 kts 274°
2026-05-05 07:57 42.48071 -21.52650 36338 ft 450 kts 274°
2026-05-05 07:57 42.47903 -21.61091 36333 ft 451 kts 274°
2026-05-05 07:58 42.47729 -21.69537 36338 ft 451 kts 273°
2026-05-05 07:58 42.47548 -21.77996 36345 ft 451 kts 273°
2026-05-05 07:59 42.47361 -21.86498 36351 ft 450 kts 273°
2026-05-05 07:59 42.47166 -21.94890 36341 ft 449 kts 274°
2026-05-05 08:00 42.46966 -22.03351 36348 ft 450 kts 274°
2026-05-05 08:00 42.46760 -22.11789 36350 ft 450 kts 274°
2026-05-05 08:01 42.46550 -22.20207 36347 ft 449 kts 274°
2026-05-05 08:01 42.46330 -22.28627 36344 ft 449 kts 274°
2026-05-05 08:02 42.46108 -22.37019 36347 ft 449 kts 274°
2026-05-05 08:02 42.45877 -22.45467 36352 ft 448 kts 274°
2026-05-05 08:03 42.45641 -22.53863 36351 ft 447 kts 275°
2026-05-05 08:03 42.45401 -22.62259 36361 ft 448 kts 275°
2026-05-05 08:04 42.45149 -22.70679 36364 ft 449 kts 274°
2026-05-05 08:04 42.44897 -22.79063 36364 ft 449 kts 275°
2026-05-05 08:05 42.44636 -22.87473 36373 ft 450 kts 275°
2026-05-05 08:05 42.44369 -22.95907 36360 ft 449 kts 275°
2026-05-05 08:06 42.44096 -23.04277 36365 ft 448 kts 276°
2026-05-05 08:06 42.43819 -23.12674 36374 ft 449 kts 275°
2026-05-05 08:07 42.43536 -23.21079 36371 ft 449 kts 276°
2026-05-05 08:07 42.43246 -23.29508 36366 ft 450 kts 276°
2026-05-05 08:08 42.42947 -23.37925 36367 ft 449 kts 276°
2026-05-05 08:08 42.42646 -23.46319 36361 ft 449 kts 276°
2026-05-05 08:09 42.42336 -23.54717 36362 ft 450 kts 276°
2026-05-05 08:09 42.42019 -23.63158 36361 ft 449 kts 276°
2026-05-05 08:10 42.41696 -23.71574 36362 ft 450 kts 275°
2026-05-05 08:10 42.41369 -23.80004 36365 ft 451 kts 275°
2026-05-05 08:11 42.41033 -23.88429 36372 ft 450 kts 275°
2026-05-05 08:11 42.40690 -23.96885 36379 ft 450 kts 276°
2026-05-05 08:12 42.40347 -24.05258 36379 ft 450 kts 275°
2026-05-05 08:12 42.39992 -24.13698 36380 ft 451 kts 275°
2026-05-05 08:13 42.39631 -24.22138 36380 ft 450 kts 275°
2026-05-05 08:13 42.39265 -24.30543 36380 ft 450 kts 276°
2026-05-05 08:14 42.38895 -24.38908 36379 ft 449 kts 276°
2026-05-05 08:14 42.38516 -24.47337 36383 ft 450 kts 276°
2026-05-05 08:15 42.38132 -24.55765 36378 ft 448 kts 276°
2026-05-05 08:15 42.37744 -24.64101 36376 ft 448 kts 276°
2026-05-05 08:16 42.37347 -24.72538 36376 ft 449 kts 275°
2026-05-05 08:16 42.36947 -24.80935 36376 ft 450 kts 275°
2026-05-05 08:17 42.36539 -24.89328 36384 ft 448 kts 275°
2026-05-05 08:17 42.36125 -24.97700 36391 ft 449 kts 275°
2026-05-05 08:18 42.35711 -25.06097 36392 ft 450 kts 275°
2026-05-05 08:18 42.35269 -25.14463 36387 ft 450 kts 275°
2026-05-05 08:19 42.34839 -25.22863 36387 ft 449 kts 275°
2026-05-05 08:19 42.34623 -25.27080 36755 ft 450 kts 275°
2026-05-05 08:19 42.34405 -25.31255 36526 ft 449 kts 275°
2026-05-05 08:20 42.33962 -25.39659 36410 ft 446 kts 275°
2026-05-05 08:20 42.33518 -25.47957 36400 ft 446 kts 275°
2026-05-05 08:21 42.33054 -25.56314 36399 ft 447 kts 275°
2026-05-05 08:21 42.32596 -25.64645 36401 ft 447 kts 275°
2026-05-05 08:22 42.32135 -25.72991 36408 ft 447 kts 274°
2026-05-05 08:22 42.31650 -25.81351 36407 ft 447 kts 274°
2026-05-05 08:23 42.31179 -25.89682 36412 ft 447 kts 273°
2026-05-05 08:23 42.30681 -25.97998 36410 ft 447 kts 275°
2026-05-05 08:24 42.30210 -26.06355 36418 ft 447 kts 274°
2026-05-05 08:24 42.29741 -26.14706 36412 ft 446 kts 272°
2026-05-05 08:25 42.29205 -26.22991 36411 ft 447 kts 273°
2026-05-05 08:25 42.28677 -26.31303 36419 ft 446 kts 274°
2026-05-05 08:26 42.28169 -26.39621 36421 ft 445 kts 275°
2026-05-05 08:26 42.27684 -26.47926 36424 ft 446 kts 273°
2026-05-05 08:27 42.27138 -26.56275 36425 ft 446 kts 273°
2026-05-05 08:27 42.26599 -26.64544 36422 ft 445 kts 274°
2026-05-05 08:28 42.26068 -26.72834 36421 ft 446 kts 273°
2026-05-05 08:28 42.25533 -26.81142 36427 ft 446 kts 273°
2026-05-05 08:29 42.24997 -26.89435 36429 ft 445 kts 272°
2026-05-05 08:30 42.24139 -27.01923 36429 ft 445 kts 272°
2026-05-05 08:30 42.23579 -27.10162 36440 ft 445 kts 272°
2026-05-05 08:31 42.23007 -27.18492 36441 ft 445 kts 272°
2026-05-05 08:31 42.22428 -27.26710 36439 ft 444 kts 272°
2026-05-05 08:32 42.21846 -27.34997 36439 ft 443 kts 272°
2026-05-05 08:32 42.21261 -27.43247 36434 ft 443 kts 272°
2026-05-05 08:33 42.20673 -27.51468 36429 ft 442 kts 272°
2026-05-05 08:33 42.20082 -27.59656 36433 ft 442 kts 272°
2026-05-05 08:34 42.19481 -27.67871 36433 ft 442 kts 271°
2026-05-05 08:34 42.18875 -27.76076 36433 ft 441 kts 271°
2026-05-05 08:35 42.18261 -27.84280 36436 ft 440 kts 271°
2026-05-05 08:35 42.17649 -27.92417 36435 ft 440 kts 271°
2026-05-05 08:36 42.17025 -28.00596 36438 ft 439 kts 271°
2026-05-05 08:36 42.16399 -28.08736 36439 ft 438 kts 271°
2026-05-05 08:37 42.15773 -28.16820 36435 ft 438 kts 272°
2026-05-05 08:37 42.15139 -28.24952 36436 ft 438 kts 271°
2026-05-05 08:38 42.14499 -28.33069 36438 ft 437 kts 271°
2026-05-05 08:38 42.13855 -28.41188 36437 ft 437 kts 271°
2026-05-05 08:39 42.13195 -28.49290 36437 ft 436 kts 273°
2026-05-05 08:39 42.12562 -28.57338 36430 ft 433 kts 272°
2026-05-05 08:40 42.11907 -28.65351 36438 ft 435 kts 271°
2026-05-05 08:40 42.11243 -28.73379 36438 ft 432 kts 271°
2026-05-05 08:41 42.10581 -28.81382 36431 ft 433 kts 270°
2026-05-05 08:41 42.09896 -28.89440 36430 ft 432 kts 271°
2026-05-05 08:42 42.09180 -28.97423 36429 ft 432 kts 274°
2026-05-05 08:42 42.08527 -29.05392 36429 ft 433 kts 274°
2026-05-05 08:43 42.07865 -29.13388 36444 ft 433 kts 272°
2026-05-05 08:43 42.07178 -29.21302 36440 ft 429 kts 271°
2026-05-05 08:44 42.06470 -29.29229 36449 ft 430 kts 272°
2026-05-05 08:44 42.05761 -29.37161 36437 ft 430 kts 272°
2026-05-05 08:45 42.05069 -29.45100 36456 ft 427 kts 272°
2026-05-05 08:45 42.04380 -29.52979 36436 ft 427 kts 271°
2026-05-05 08:46 42.03664 -29.60812 36449 ft 429 kts 270°
2026-05-05 08:46 42.02925 -29.68666 36449 ft 428 kts 271°
2026-05-05 08:47 42.02193 -29.76610 36445 ft 428 kts 271°
2026-05-05 08:47 42.01467 -29.84465 36448 ft 427 kts 271°
2026-05-05 08:48 42.00740 -29.92320 36451 ft 425 kts 271°
2026-05-05 08:48 41.99954 -30.00164 36452 ft 427 kts 269°
2026-05-05 08:49 41.98809 -30.08007 36455 ft 429 kts 267°
2026-05-05 08:49 41.97625 -30.15791 36453 ft 430 kts 267°
2026-05-05 08:50 41.96422 -30.23645 36449 ft 430 kts 267°
2026-05-05 08:50 41.95213 -30.31510 36447 ft 429 kts 267°
2026-05-05 08:51 41.93993 -30.39353 36452 ft 431 kts 267°
2026-05-05 08:51 41.92781 -30.47193 36452 ft 429 kts 267°
2026-05-05 08:52 41.91567 -30.54952 36456 ft 429 kts 267°
2026-05-05 08:52 41.90337 -30.62782 36450 ft 430 kts 267°
2026-05-05 08:53 41.89109 -30.70576 36450 ft 427 kts 266°
2026-05-05 08:53 41.87868 -30.78379 36456 ft 427 kts 266°
2026-05-05 08:54 41.86635 -30.86113 36451 ft 431 kts 266°
2026-05-05 08:54 41.85387 -30.93933 36449 ft 428 kts 267°
2026-05-05 08:55 41.84135 -31.01724 36454 ft 429 kts 267°
2026-05-05 08:55 41.82873 -31.09551 36457 ft 430 kts 266°
2026-05-05 08:56 41.81617 -31.17285 36464 ft 429 kts 267°
2026-05-05 08:56 41.80340 -31.25052 36468 ft 429 kts 268°
2026-05-05 08:57 41.79080 -31.32814 36456 ft 428 kts 267°
2026-05-05 08:57 41.77803 -31.40605 36449 ft 426 kts 267°
2026-05-05 08:58 41.76532 -31.48345 36444 ft 428 kts 266°
2026-05-05 08:58 41.75246 -31.56064 36439 ft 429 kts 267°
2026-05-05 08:59 41.73958 -31.63831 36444 ft 428 kts 266°
2026-05-05 08:59 41.72673 -31.71551 36439 ft 428 kts 265°
2026-05-05 09:00 41.71363 -31.79326 36448 ft 427 kts 265°
2026-05-05 09:00 41.70042 -31.86972 36428 ft 423 kts 267°
2026-05-05 09:01 41.68760 -31.94647 36453 ft 424 kts 266°
2026-05-05 09:01 41.67444 -32.02319 36433 ft 424 kts 267°
2026-05-05 09:02 41.66155 -32.09992 36443 ft 424 kts 266°
2026-05-05 09:02 41.64821 -32.17633 36434 ft 422 kts 267°
2026-05-05 09:03 41.63506 -32.25220 36440 ft 423 kts 267°
2026-05-05 09:03 41.62201 -32.32843 36451 ft 421 kts 267°
2026-05-05 09:04 41.60912 -32.40419 36447 ft 419 kts 265°
2026-05-05 09:04 41.59573 -32.47986 36450 ft 419 kts 266°
2026-05-05 09:05 41.58245 -32.55524 36431 ft 417 kts 266°
2026-05-05 09:05 41.56874 -32.63071 36435 ft 420 kts 268°
2026-05-05 09:06 41.55576 -32.70623 36435 ft 419 kts 265°
2026-05-05 09:06 41.54218 -32.78140 36447 ft 419 kts 267°
2026-05-05 09:07 41.52882 -32.85710 36435 ft 419 kts 267°
2026-05-05 09:07 41.51567 -32.93210 36429 ft 420 kts 266°
2026-05-05 09:08 41.50203 -33.00756 36423 ft 419 kts 265°
2026-05-05 09:08 41.48833 -33.08314 36422 ft 422 kts 266°
2026-05-05 09:09 41.47471 -33.15857 36427 ft 418 kts 265°
2026-05-05 09:09 41.46096 -33.23367 36431 ft 418 kts 265°
2026-05-05 09:10 41.44717 -33.30889 36435 ft 420 kts 265°
2026-05-05 09:10 41.43334 -33.38440 36435 ft 420 kts 265°
2026-05-05 09:11 41.41955 -33.45972 36432 ft 419 kts 265°
2026-05-05 09:11 41.40568 -33.53458 36429 ft 418 kts 264°
2026-05-05 09:12 41.39163 -33.60970 36420 ft 420 kts 265°
2026-05-05 09:12 41.37753 -33.68499 36422 ft 420 kts 265°
2026-05-05 09:13 41.36349 -33.75992 36416 ft 420 kts 265°
2026-05-05 09:13 41.34963 -33.83498 36415 ft 421 kts 264°
2026-05-05 09:14 41.33535 -33.91010 36416 ft 421 kts 265°
2026-05-05 09:14 41.32118 -33.98491 36416 ft 420 kts 265°
2026-05-05 09:15 41.30690 -34.05965 36414 ft 418 kts 265°
2026-05-05 09:15 41.29277 -34.13481 36406 ft 420 kts 264°
2026-05-05 09:16 41.27834 -34.20992 36412 ft 423 kts 264°
2026-05-05 09:16 41.26364 -34.28507 36408 ft 421 kts 265°
2026-05-05 09:17 41.24952 -34.35968 36409 ft 420 kts 264°
2026-05-05 09:17 41.23506 -34.43468 36406 ft 421 kts 264°
2026-05-05 09:18 41.22044 -34.50965 36404 ft 421 kts 264°
2026-05-05 09:18 41.20570 -34.58493 36403 ft 423 kts 264°
2026-05-05 09:19 41.19109 -34.65939 36403 ft 422 kts 263°
2026-05-05 09:19 41.17699 -34.73148 36404 ft 424 kts 262°